Preview of NWS' New Version of Forecast
This preview is not operational and should not be used for support decisions.

Regional Weather Roundup (RWR)

Issued by National Weather Service (NWS)

                            
000
ASUS43 KDMX 151701
RWRIA 

WEATHER ROUNDUP FOR IOWA
NATIONAL WEATHER SERVICE DES MOINES IA
1200 PM CDT SUN SEP 15 2019

NOTE: "FAIR" INDICATES FEW OR NO CLOUDS BELOW 12,000 FEET WITH NO
SIGNIFICANT WEATHER AND/OR OBSTRUCTIONS TO VISIBILITY.

* - THESE STATIONS ARE NOT NWS STATIONS...THUS NOT UNDER NWS
QUALITY CONTROL.  THEY ALSO DO NOT REPORT WEATHER SUCH 
AS PRECIPITATION OR FOG.  

IAZ001>003-012>014-020>022-031>034-043>046-151800-
   NORTHWEST IOWA
  
CITY           SKY/WX    TMP DP  RH WIND       PRES   REMARKS
CARROLL *      MOSUNNY   77  72  83 N8        30.02R                  
CHEROKEE *     CLOUDY    72  72 100 CALM      30.02F                  
DENISON *      SUNNY     81  73  78 CALM      30.03S HX  85           
LE MARS *      CLOUDY    72  72 100 VRB6      30.02S                  
SHELDON *      CLOUDY    73  72  94 SE8       30.01R                  
SIOUX CITY     PTSUNNY   74  69  85 CALM      30.02S                  
SPENCER        PTSUNNY   78  69  73 SE6       30.02S HX  80           
STORM LAKE *   MOSUNNY   72  72 100 E6        30.00S                  
$$
 
IAZ055>058-069>071-079>083-090>094-151800-
   SOUTHWEST IOWA
  
CITY           SKY/WX    TMP DP  RH WIND       PRES   REMARKS
ATLANTIC *     SUNNY     82  75  78 CALM      30.01R HX  89           
AUDUBON *        N/A     82  73  74 CALM      30.03S HX  88           
CLARINDA *     SUNNY     84  73  70 SW8       30.03F HX  91           
COUNCIL BLFS * SUNNY     82  73  74 SW7       30.00S HX  88           
CRESTON *      SUNNY     82  70  65 W9        30.03S HX  86           
LAMONI         SUNNY     83  69  62 SW14      30.03S HX  86           
RED OAK *      SUNNY     84  72  65 S7        30.02R HX  89           
SHENANDOAH *   SUNNY     84  70  61 SW7       30.00F HX  88           
$$
 
IAZ047>049-059>061-072>074-084-151800-
   CENTRAL IOWA
  
CITY           SKY/WX    TMP DP  RH WIND       PRES   REMARKS
AMES           MOSUNNY   80  72  76 W3        29.99S HX  84           
ANKENY *       SUNNY     81  72  74 W7        30.00S HX  84           
BOONE *          N/A     77  75  94 W6        30.00S                  
CHARITON *     SUNNY     82  75  78 SW8       30.01R HX  89           
DES MOINES     MOSUNNY   82  70  66 W6        29.98S HX  86           
GRINNELL*      MOSUNNY   79  71  77 W3        30.01S HX  82           
KNOXVILLE *    SUNNY     82  73  74 W10       30.00R HX  88           
MARSHALLTOWN   MOSUNNY   79  73  82 W3        29.98S HX  82           
NEWTON *       SUNNY     82  73  74 SW8       29.99S HX  88           
PELLA *        SUNNY     83  69  63 W7        30.01S HX  87           
PERRY *        FAIR      81  73  77 NW3       30.00S HX  86           
$$
 
IAZ004>006-015-016-023>025-035-036-151800-
   NORTH CENTRAL IOWA
  
CITY           SKY/WX    TMP DP  RH WIND       PRES   REMARKS
ALGONA *       MOSUNNY   75  73  94 CALM      30.01S                  
CLARION *      CLOUDY    75  73  94 CALM      30.01S                  
ESTHERVILLE    SUNNY     77  68  73 VRB5      30.02R                  
FORT DODGE *   CLOUDY    72  70  93 NW3       30.02S                  
MASON CITY     PTSUNNY   75  68  78 CALM      30.02S                  
FOREST CITY *  CLOUDY    72  70  94 N5        30.02R                  
IOWA FALLS *     N/A     80  68  66 W3        30.01S HX  83           
$$

IAZ007>011-017>019-026>030-037>042-050>054-066-151800-
   NORTHEAST IOWA
  
CITY           SKY/WX    TMP DP  RH WIND       PRES   REMARKS
CEDAR RAPIDS   CLOUDY    78  72  81 SW10      29.98F HX  80           
CHARLES CITY * FAIR      77  70  78 CALM      30.00S                  
CLINTON *        N/A     76  69  79 SW13      30.03R                  
DECORAH *      CLOUDY    73  70  88 NW5       29.99R                  
DUBUQUE        CLOUDY    75  70  84 S15       29.99F                  
MONTICELLO *   CLOUDY    77  73  88 SW9G15    29.99F                  
OELWEIN *      CLOUDY    75  73  94 CALM      30.00R                  
WATERLOO       PTSUNNY   80  70  71 S5        29.97S HX  83           
$$
 
IAZ064-065-067-068-078-151800-
   EAST CENTRAL IOWA
  
CITY           SKY/WX    TMP DP  RH WIND       PRES   REMARKS
DAVENPORT      PTSUNNY   79  69  71 S13G18    30.03S HX  81           
IOWA CITY      CLOUDY    81  70  69 SW12      30.00F HX  84           
MUSCATINE *    FAIR      81  72  74 SW14G21   30.00S HX  84           
QUAD CITIES    PTSUNNY   80  70  71 SW13G21   30.01S HX  83           
$$
 
IAZ062-063-075>077-085>089-095>099-151800-
   SOUTHEAST IOWA
  
CITY           SKY/WX    TMP DP  RH WIND       PRES   REMARKS
BURLINGTON     SUNNY     79  68  69 SW9G20    30.03F HX  81           
FAIRFIELD *    SUNNY     81  73  78 SW10G20   30.00F HX  85           
FORT MADISON * SUNNY     79  72  78 S12       30.03F HX  82           
KEOKUK *       SUNNY     79  72  78 SW14      30.03F HX  82           
OSKALOOSA *    PTSUNNY   82  70  67 W8        30.00S HX  85           
OTTUMWA        MOSUNNY   83  72  69 SW9       29.99F HX  88           
WASHINGTON *     N/A    N/A N/A N/A MISG        N/A                   
$$

ABBREVIATIONS USED IN REMARKS
   TC - TEMPERATURES IN CELSIUS
  WCI - WIND CHILL INDEX
   HX - HEAT INDEX
  VSB - VISIBILITY  
$$